カタログに戻る

STARLINK-5676

運用中通信VLEO
NORAD 55464·PAYLOAD·🇺🇸 United States

打ち上げ Feb 2, 2023 から Cape Canaveral Space Force Station

Loading…

次のパス (今後24時間)

TLE

最新Source: CelesTrak SupGP

元期: Sep 14, 2026, 22:20 UTC

1 55464C 23015R   26257.93104167 -.00052528  00000+0 -19026-2 0  2578
2 55464  43.0019 339.9569 0001465 268.3338 117.2229 15.27604711    15

AllMySatでSTARLINK-5676をリアルタイム追跡

Download on the App Store